Weather History for KVKY - January, 2014

Change the Weather History Date:

Tuesday, January 28, 2014

  Actual Average Record
Temperature  
Mean Temperature 48 °F -  
Max Temperature 57 °F - - ()
Min Temperature 39 °F - - ()
Degree Days  
Heating Degree Days 17    
Moisture  
Dew Point 40 °F    
Average Humidity 79    
Maximum Humidity 93    
Minimum Humidity 62    
Precipitation  
Precipitation 0.00 in - - ()
Sea Level Pressure  
Sea Level Pressure 30.11 in    
Wind  
Wind Speed 25 mph (ENE)    
Max Wind Speed 31 mph    
Max Gust Speed 38 mph    
Visibility 9 miles    
Events      
T = Trace of Precipitation, MM = Missing Value Source: NWS Daily Summary

Daily Weather History Graph

Daily Weather History Graph

Search for Another Location

Airport or City:

Trip Planner

Search our weather history database for the weather conditions in past years. The results will help you decide how hot, cold, wet, or windy it might be!

Date:

Astronomy

Jan. 28, 2014 Rise Set
Actual Time 6:44 AM CST 5:28 PM CST
Civil Twilight 6:19 AM CST 5:53 PM CST
Nautical Twilight 5:51 AM CST 6:22 PM CST
Astronomical Twilight 5:23 AM CST 6:50 PM CST
Moon 4:23 AM CST (1/28) 3:21 PM CST (1/28)
Length of Visible Light 11h 34m
Length of Day
10h 44m
Waning Crescent, 7% of the Moon is Illuminated
Jan 28
Waning Crescent
Jan 30
New
Feb 6
First Quarter
Feb 14
Full
Feb 22
Last Quarter

Hourly Weather History & Observations

Time (CST) Temp. Windchill Dew Point Humidity Pressure Visibility Wind Dir Wind Speed Gust Speed Precip Events Conditions
12:15 AM 57.2 °F - 48.2 °F 72% 30.01 in 10.0 mi East 25.3 mph - N/A   Mostly Cloudy
12:35 AM 57.2 °F - 48.2 °F 72% 30.02 in 10.0 mi East 25.3 mph - N/A   Mostly Cloudy
12:55 AM 57.2 °F - 46.4 °F 67% 30.02 in 10.0 mi East 24.2 mph - N/A   Overcast
1:15 AM 55.4 °F - 46.4 °F 72% 30.02 in 10.0 mi East 27.6 mph - N/A   Overcast
1:35 AM 55.4 °F - 46.4 °F 72% 30.03 in 10.0 mi East 25.3 mph - N/A   Overcast
1:55 AM 55.4 °F - 44.6 °F 67% 30.02 in 10.0 mi East 27.6 mph - N/A   Overcast
2:15 AM 55.4 °F - 44.6 °F 67% 30.01 in 10.0 mi East 25.3 mph - N/A   Overcast
2:35 AM 55.4 °F - 44.6 °F 67% 30.02 in 10.0 mi East 23.0 mph - N/A   Overcast
2:55 AM 55.4 °F - 44.6 °F 67% 30.00 in 10.0 mi East 25.3 mph - N/A   Overcast
3:15 AM 55.4 °F - 42.8 °F 63% 30.00 in 10.0 mi East 25.3 mph - N/A   Overcast
3:35 AM 53.6 °F - 41.0 °F 62% 30.00 in 10.0 mi East 24.2 mph - N/A   Overcast
3:55 AM 53.6 °F - 42.8 °F 67% 30.00 in 10.0 mi East 25.3 mph - N/A   Overcast
4:15 AM 53.6 °F - 42.8 °F 67% 30.02 in 10.0 mi East 21.9 mph - N/A   Overcast
4:35 AM 53.6 °F - 41.0 °F 62% 30.03 in 10.0 mi East 21.9 mph - N/A   Overcast
4:55 AM 51.8 °F - 41.0 °F 67% 30.04 in 10.0 mi East 21.9 mph - N/A   Overcast
5:15 AM 51.8 °F - 41.0 °F 67% 30.05 in 10.0 mi East 21.9 mph - N/A   Overcast
5:35 AM 51.8 °F - 41.0 °F 67% 30.06 in 10.0 mi East 20.7 mph 27.6 mph N/A   Overcast
5:55 AM 51.8 °F - 41.0 °F 67% 30.06 in 10.0 mi East 23.0 mph 28.8 mph N/A   Overcast
6:15 AM 51.8 °F - 41.0 °F 67% 30.07 in 10.0 mi ENE 23.0 mph - N/A   Overcast
6:35 AM 50.0 °F - 39.2 °F 66% 30.07 in 10.0 mi East 23.0 mph - N/A   Overcast
6:55 AM 50.0 °F - 41.0 °F 71% 30.07 in 10.0 mi East 21.9 mph - N/A   Overcast
7:15 AM 50.0 °F - 41.0 °F 71% 30.08 in 10.0 mi East 23.0 mph - N/A   Overcast
7:35 AM 50.0 °F - 39.2 °F 66% 30.10 in 10.0 mi East 23.0 mph - N/A   Overcast
7:55 AM 50.0 °F - 39.2 °F 66% 30.11 in 10.0 mi ENE 23.0 mph - N/A   Overcast
8:15 AM 50.0 °F - 39.2 °F 66% 30.12 in 10.0 mi ENE 23.0 mph - N/A   Overcast
8:35 AM 48.2 °F - 39.2 °F 71% 30.13 in 10.0 mi ENE 25.3 mph 32.2 mph N/A   Overcast
8:55 AM 48.2 °F - 39.2 °F 71% 30.13 in 10.0 mi East 25.3 mph - N/A   Overcast
9:15 AM 46.4 °F 37.9 °F 39.2 °F 76% 30.13 in - East 25.3 mph 31.1 mph N/A   Overcast
9:35 AM 46.4 °F 38.1 °F 39.2 °F 76% 30.14 in 10.0 mi ENE 24.2 mph - N/A   Overcast
9:55 AM 46.4 °F 38.3 °F 39.2 °F 76% 30.15 in 10.0 mi East 23.0 mph - N/A   Overcast
10:15 AM 46.4 °F 38.7 °F 39.2 °F 76% 30.14 in 10.0 mi East 20.7 mph - N/A   Overcast
10:35 AM 46.4 °F 38.3 °F 39.2 °F 76% 30.13 in 10.0 mi East 23.0 mph 29.9 mph N/A   Overcast
10:55 AM 46.4 °F 38.7 °F 39.2 °F 76% 30.14 in 10.0 mi East 20.7 mph - N/A   Overcast
11:15 AM 46.4 °F 38.1 °F 37.4 °F 71% 30.15 in 10.0 mi ENE 24.2 mph - N/A   Overcast
11:35 AM 44.6 °F 35.7 °F 39.2 °F 81% 30.14 in 10.0 mi ENE 24.2 mph - N/A   Overcast
11:55 AM 44.6 °F 36.1 °F 39.2 °F 81% 30.14 in 10.0 mi ENE 21.9 mph 27.6 mph N/A   Overcast
12:15 PM 44.6 °F 35.7 °F 39.2 °F 81% 30.13 in 10.0 mi ENE 24.2 mph 29.9 mph N/A   Overcast
12:35 PM 44.6 °F 35.5 °F 37.4 °F 76% 30.12 in 10.0 mi ENE 25.3 mph - N/A   Overcast
12:55 PM 42.8 °F 33.3 °F 39.2 °F 87% 30.11 in 10.0 mi NE 24.2 mph 32.2 mph N/A   Overcast
1:15 PM 41.0 °F 30.2 °F 37.4 °F 87% 30.10 in 10.0 mi ENE 27.6 mph - N/A   Overcast
1:35 PM 41.0 °F 31.4 °F 37.4 °F 87% 30.11 in 10.0 mi ENE 21.9 mph 31.1 mph N/A   Overcast
1:55 PM 41.0 °F 31.6 °F 39.2 °F 93% 30.11 in 9.0 mi ENE 20.7 mph - N/A   Overcast
2:15 PM 41.0 °F 31.4 °F 39.2 °F 93% 30.10 in 10.0 mi ENE 21.9 mph - N/A   Overcast
2:35 PM 41.0 °F 31.9 °F 39.2 °F 93% 30.09 in 5.0 mi ENE 19.6 mph 25.3 mph N/A   Overcast
2:55 PM 41.0 °F 31.6 °F 39.2 °F 93% 30.09 in 1.5 mi East 20.7 mph - N/A   Overcast
3:15 PM 42.8 °F 34.3 °F 39.2 °F 87% 30.10 in 1.5 mi ENE 19.6 mph - N/A   Overcast
3:35 PM 42.8 °F 34.3 °F 41.0 °F 93% 30.11 in 9.0 mi ENE 19.6 mph - N/A   Overcast
3:55 PM 42.8 °F 34.0 °F 41.0 °F 93% 30.12 in 5.0 mi NE 20.7 mph - N/A   Overcast
4:15 PM 42.8 °F 33.5 °F 41.0 °F 93% 30.12 in 8.0 mi NE 23.0 mph - N/A   Overcast
4:35 PM 42.8 °F 33.8 °F 39.2 °F 87% 30.12 in 10.0 mi ENE 21.9 mph 33.4 mph N/A   Overcast
4:55 PM 42.8 °F 33.5 °F 39.2 °F 87% 30.12 in 10.0 mi ENE 23.0 mph 28.8 mph N/A   Overcast
5:15 PM 42.8 °F 33.5 °F 39.2 °F 87% 30.12 in 10.0 mi ENE 23.0 mph - N/A   Overcast
5:35 PM 42.8 °F 33.1 °F 39.2 °F 87% 30.14 in 10.0 mi ENE 25.3 mph - N/A   Overcast
5:55 PM 42.8 °F 33.1 °F 39.2 °F 87% 30.13 in 10.0 mi ENE 25.3 mph 31.1 mph N/A   Overcast
6:15 PM 42.8 °F 33.1 °F 39.2 °F 87% 30.15 in 10.0 mi ENE 25.3 mph 32.2 mph N/A   Overcast
6:35 PM 41.0 °F 29.8 °F 39.2 °F 93% 30.16 in 9.0 mi ENE 29.9 mph - N/A   Overcast
6:55 PM 41.0 °F 30.5 °F 39.2 °F 93% 30.16 in 10.0 mi ENE 26.5 mph 34.5 mph N/A   Overcast
7:15 PM 41.0 °F 30.7 °F 37.4 °F 87% 30.18 in 10.0 mi NE 25.3 mph 33.4 mph N/A   Overcast
7:35 PM 42.8 °F 32.7 °F 39.2 °F 87% 30.18 in 3.0 mi ENE 27.6 mph - N/A   Overcast
7:55 PM 41.0 °F 30.0 °F 37.4 °F 87% 30.19 in 8.0 mi ENE 28.8 mph - N/A   Overcast
8:15 PM 41.0 °F 30.2 °F 37.4 °F 87% 30.21 in 10.0 mi ENE 27.6 mph 33.4 mph N/A   Overcast
8:35 PM 41.0 °F 30.2 °F 37.4 °F 87% 30.21 in 10.0 mi ENE 27.6 mph 34.5 mph N/A   Overcast
8:55 PM 41.0 °F 29.8 °F 37.4 °F 87% 30.21 in 10.0 mi ENE 29.9 mph 35.7 mph N/A   Overcast
9:15 PM 41.0 °F 30.5 °F 37.4 °F 87% 30.21 in 8.0 mi ENE 26.5 mph 34.5 mph N/A   Overcast
9:35 PM 41.0 °F 30.2 °F 37.4 °F 87% 30.22 in 10.0 mi ENE 27.6 mph 34.5 mph N/A   Overcast
9:55 PM 39.2 °F 27.2 °F 35.6 °F 87% 30.21 in 10.0 mi ENE 31.1 mph - N/A   Overcast
10:15 PM 39.2 °F 27.6 °F 37.4 °F 93% 30.22 in 7.0 mi ENE 28.8 mph 35.7 mph N/A   Overcast
10:35 PM 39.2 °F 27.2 °F 37.4 °F 93% 30.22 in 10.0 mi ENE 31.1 mph 38.0 mph N/A   Overcast
10:55 PM 39.2 °F 27.8 °F 37.4 °F 93% 30.22 in 8.0 mi ENE 27.6 mph 36.8 mph N/A   Overcast
11:15 PM 39.2 °F 28.0 °F 37.4 °F 93% 30.23 in 4.0 mi ENE 26.5 mph 35.7 mph N/A   Overcast
11:35 PM 39.2 °F 27.2 °F 37.4 °F 93% 30.23 in 6.0 mi ENE 31.1 mph 36.8 mph N/A   Overcast
11:55 PM 39.2 °F 27.8 °F 37.4 °F 93% 30.22 in 6.0 mi ENE 27.6 mph 35.7 mph N/A   Overcast